sat.trackr.live / text

‹ back to catalog

COSMOS 2513

NORAD 41121 · 2015-075A

PAYLOAD ACTIVE UNKNOWN

§ Identity

Operator
Country
CIS
Launch date
2015-12-13
Launch site
TYMSC
Launch vehicle
Mass (kg)
RCS (m²)
3.36

Purposes: comms

External: N2YO · Heavens-Above · Gunter

§ Orbital elements

Epoch: 2026-09-03T16:26:37.383360Z

Period
1,436.09 min
Inclination
0.0438°
Eccentricity
0.0001071
Mean motion
1.00272256 rev/d
Perigee alt
35,781.9 km
Apogee alt
35,791.0 km
Semi-major
42,164.6 km
B*
0.0000e+0
RAAN
107.3632°
Arg perigee
72.8552°
Mean anomaly
129.5176°
Rev number
3,933

§ Raw data

COSMOS 25131 41121U 15075A   26246.68515490 -.00000141  00000+0  00000+0 0  99902 41121   0.0438 107.3632 0001071  72.8552 129.5176  1.00272256 39330

JSON: /api/v1/satellites/41121 · /tle

For live sub-satellite position, see the globe view (requires WebGL).

§ Visibility from observer

Set your observer location to see the next 7 days of passes ≥ 10°. The values pass through the URL so the page stays shareable.

No JS? Fill the form by hand. The geolocation button needs JavaScript.